STARLINK-11188, 60722

Orbit data source: Space-Track

STARLINK-11188, 60722 is a payload satellite owned by SpaceX/Seattle (US) in LEO that was launched on Wed, 28 Aug 2024 UTC via an FALCON 9 launch vehicle from the Air Force Eastern Test Range (AFETR). Payload-class satellites include a variety of spacecraft equipped with specific instruments for various scientific and technological missions. These include communications satellites like Starlink; space stations such as the ISS; scientific satellites like the Hubble; Earth observation satellites from companies like Planet Labs, Umbra, and HawkEye 360; GPS; miniature CubeSats for education and research; and military/defense satellites.

Loading next visibility...
Identifier
60722, 2024-152C
Orbit
LEO
Country
Flag of USUS
Related business
Manufacturer
SpaceX/Seattle
Mission
Operational Commercial Communications
Bus & Motor
STARLINK V2MD, Unknown motor
Mass
960 kg wet, ~910 kg dry
Launch date (UTC)
2024-08-28 (1 year ago)
Launch vehicle
FALCON 9
Launch site
Air Force Eastern Test Range (AFETR)
Object type
Payload
Rocket body
Debris
Shape & HBR
Box + 2 Pan, 18.1 m
Radar Cross Section
36.964 m², Large (>1 m²)

Expand to show TLE details & history
Last TLE update: 18 hours ago

TLE from 18 hours ago
0 STARLINK-11188
1 60722U 24152C   25312.40815041 -.00001657  00000-0 -88174-5 0  9991
2 60722  53.1585 354.3366 0001070  80.0115 280.1024 15.69714580 69906
Epoch: 2025-11-08T09:47Z
TLE epoch observation values (Epoch: 2025-11-08T09:47:44.195Z)
Latitude
0.00001°
Longitude
159.56427°
Altitude
360.502 km
Speed
7.694 km/s
True Right ascension
23h 37m 20s
True Declination
0° 00' 00"
Sunlit
Object was in full shadow at epoch
Visualization orbit readout
Latitude
Unknown
Longitude
Unknown
Altitude
Unknown
Speed
Unknown
Apparent Right ascension
Unknown
Apparent Declination
Unknown
Sunlit
N/A
Visualization observer readout
Local Sidereal Time
00:00:37
Azimuth
Unknown
Elevation
Unknown
Doppler factor
Unknown
Orbital elements
Apogee altitude
360.696 km
Perigee altitude
359.254 km
Semi-major axis
6,738.112 km
Eccentricity
0.00011
Inclination
53.1585°
RAAN
354.3366°
Arg. of periapsis
80.0115°
True anomaly
280.09033°
Mean anomaly
280.1024°
Eccentric anomaly
280.09636°
Mean motion
3.92406 °/min
Orbital period
91.74 mins
BSTAR
-0.0000088174
Loading maneuver chart data...
Computing Atmospheric mass density...
Loading historical data...
Loading historical data...
Loading historical data...
Loading historical data...
Loading historical data...
Loading historical data...
Loading historical data...

Documentation

Showing up to 5 results
|